[[{"header":{"parameterUnit":"m.s-1","parameterCategory":2,"la1":30.2991,"la2":30.254,"lo1":-89.0895,"lo2":-89.0444,"dy":0.0017,"dx":0.0017,"nx":28,"ny":28,"refTime":"2026-02-07T09:00:00:Z","depth":"0","parameterNumber":2,"parameterNumberName":"U-component_of_CURRENTS"},"data":[0,0,0,0,0,0,0,0,0,0,0,0,0,0,0,0,0,0,0,0,0,0,0,0,0,0,0,0,0,0,0,0,0,0,0,0,0,0,0,0,0,0,0,0,0,0,0,0,0,0,0,0,0,0,0,0,0,0,0.2789,0.279,0,0.2834,0.2834,0.2835,0.2826,0.2825,0.2824,0.2823,0.2909,0.2913,0.2916,0,0,0,0,0,0,0,0,0,0,0,0,0,0.2789,0.2789,0.2789,0.279,0.279,0.2834,0.2834,0.2835,0.2826,0.2825,0.2824,0.2822,0.2908,0.2912,0.2916,0,0,0,0,0,0,0,0,0,0,0,0,0,0.281,0.2789,0.2789,0.2788,0.2788,0.2833,0.2834,0.2836,0.2827,0.2825,0.2823,0.2822,0.2907,0.2912,0.2917,0.2982,0,0,0.2932,0.2934,0,0,0,0,0,0,0,0,0.2809,0.2811,0.2788,0.2788,0.2788,0.282,0.2866,0.2885,0.2827,0.2816,0.2823,0.2821,0.2882,0.2889,0.2906,0.2986,0.2989,0.2933,0.2936,0.2938,0.2939,0,0,0,0,0,0,0,0.2807,0.2809,0.281,0.2788,0.2789,0.2817,0.2817,0.287,0.2861,0.2817,0.2815,0.2815,0.2883,0.2901,0.2908,0.2991,0.2932,0.2937,0.294,0.2942,0.3162,0.3164,0,0,0,0,0,0,0.2792,0.2807,0.2809,0.2811,0.2791,0.2817,0.2818,0.2814,0.286,0.2864,0.2817,0.2815,0.2893,0.2902,0.2911,0.2995,0.2938,0.2942,0.2945,0.3159,0.3162,0.3165,0,0,0,0,0,0,0.2792,0.2792,0.2807,0.2808,0.2811,0.2818,0.2814,0.2816,0.2833,0.2859,0.2864,0.2831,0.2892,0.2904,0.2956,0.2998,0.2945,0.2949,0.3156,0.316,0.3164,0.3162,0,0,0,0,0,0,0.2792,0.2791,0.2804,0.2807,0.281,0.284,0.2816,0.2818,0.2834,0.2832,0.2874,0.288,0.2892,0.2949,0.2961,0.3004,0.2953,0.3152,0.3157,0.3162,0.3158,0.3165,0.3171,0,0,0,0,0,0.2791,0.2825,0.2804,0.2805,0.282,0.2841,0.2847,0.2848,0.2836,0.2856,0.2875,0.2878,0.2992,0.2955,0.2969,0.3014,0.3149,0.3156,0.3162,0.3155,0.3164,0.3171,0,0,0,0,0,0,0.2862,0.2826,0.2804,0.2832,0.2831,0.2838,0.2864,0.2857,0.289,0.2886,0.2905,0.2914,0.2975,0.3007,0.2965,0.3099,0.3077,0.3086,0.3067,0.3076,0.3082,0.311,0.2957,0,0,0,0,0,0.2872,0.2862,0.2848,0.2868,0.2869,0.2865,0.2879,0.287,0.2888,0.2899,0.2928,0.2971,0.3018,0.3051,0.3093,0.317,0.3222,0.3216,0.3222,0.3227,0.3264,0.3343,0.3359,0.3186,0.3186,0.3186,0,0,0.2897,0.2882,0.2875,0.2878,0.2877,0.2916,0.2871,0.2887,0.2926,0.2908,0.2981,0.2988,0.304,0.311,0.3144,0.314,0.331,0.3235,0.3238,0.3273,0.3352,0.3368,0.3383,0.319,0.319,0.3189,0,0,0.2948,0.2933,0.2941,0.295,0.2945,0.2955,0.296,0.2966,0.2973,0.3026,0.3023,0.3055,0.314,0.3176,0.3208,0.329,0.3331,0.3311,0.3378,0.3453,0.3468,0.3481,0.3582,0.3605,0.3326,0.3326,0.3326,0,0.2976,0.2987,0.2955,0.2985,0.3006,0.2978,0.302,0.3043,0.3067,0.3088,0.3054,0.3171,0.3179,0.3286,0.3296,0.3304,0.3365,0.3329,0.3459,0.3473,0.3487,0.3588,0.3612,0.3326,0.3326,0.3326,0.3326,0,0.3047,0.3052,0.3069,0.3087,0.3121,0.3144,0.3162,0.3193,0.3191,0.3207,0.3277,0.3284,0.3357,0.3359,0.3346,0.346,0.3478,0.3439,0.3426,0.3503,0.3606,0.3631,0.3327,0.3327,0.3327,0.3327,0,0,0.3102,0.3104,0.3111,0.3112,0.3166,0.3188,0.3274,0.3327,0.3365,0.3396,0.3463,0.3511,0.3494,0.3532,0.3521,0.3575,0.3686,0.355,0.3553,0.3633,0.389,0.3822,0.3843,0.3663,0.3667,0.3671,0.3927,0,0.3154,0.3184,0.3208,0.327,0.3283,0.3314,0.3394,0.3446,0.3468,0.353,0.3554,0.3607,0.3572,0.3577,0.3638,0.3663,0.3754,0.3624,0.3823,0.3831,0.3743,0.387,0.3741,0.3951,0.3952,0.3956,0.3959,0,0.323,0.3222,0.3262,0.3298,0.3317,0.3376,0.3467,0.3534,0.3626,0.3637,0.3714,0.3726,0.3831,0.3752,0.3927,0.3847,0.3893,0.3913,0.3922,0.3883,0.381,0.3876,0.3997,0.3801,0.3999,0.3996,0.3993,0,0.3246,0.3278,0.3291,0.3309,0.3361,0.3402,0.3462,0.3557,0.3589,0.3706,0.3727,0.3872,0.3911,0.4019,0.4057,0.4011,0.4228,0.4167,0.4182,0.4179,0.4125,0.4108,0.4064,0.4322,0.4322,0.4321,0.432,0,0.3295,0.3295,0.3278,0.3285,0.3305,0.3388,0.3441,0.3512,0.3611,0.3653,0.377,0.3822,0.397,0.4086,0.4142,0.4254,0.432,0.4248,0.4252,0.4121,0.4102,0.397,0.3889,0.433,0.4328,0.4326,0.4325,0,0.3284,0.3284,0.3267,0.3291,0.3295,0.3309,0.3374,0.3412,0.353,0.3592,0.3633,0.3816,0.3988,0.4135,0.4311,0.4339,0.4337,0.4469,0.4318,0.4297,0.4097,0.4023,0.3997,0.394,0.457,0.457,0.457,0,0.3249,0.3247,0.3225,0.3187,0.3178,0.3197,0.3212,0.3337,0.3376,0.3562,0.3589,0.38,0.3915,0.4198,0.4315,0.4498,0.4339,0.4457,0.4331,0.4112,0.4034,0.3885,0.3829,0.4287,0.4285,0.4283,0.4281,0,0.3173,0.3176,0.3156,0.3078,0.3056,0.3049,0.3089,0.3107,0.3272,0.3335,0.3468,0.3595,0.3895,0.4056,0.4303,0.4364,0.423,0.4421,0.4239,0.3866,0.3664,0.3599,0.4106,0.4264,0.4266,0.4267,0.4268,0.4269,0.3085,0.3046,0.3025,0.2941,0.292,0.2913,0.2897,0.2957,0.3016,0.3117,0.3302,0.3439,0.3729,0.4066,0.4116,0.4066,0.4114,0.3992,0.3952,0.3844,0.3672,0.4148,0.4251,0.4252,0.4254,0.4255,0.4256,0,0.296,0.2945,0.2879,0.2803,0.2753,0.2789,0.2811,0.2797,0.2814,0.2934,0.3036,0.3245,0.3446,0.3629,0.3744,0.3637,0.3511,0.3517,0.3266,0.3265,0.3736,0.3596,0.3502,0.3503,0.3503,0.3503,0.3503,0.3503,0.2898,0.2822,0.2793,0.2652,0.2611,0.2548,0.2552,0.2543,0.26,0.263,0.27,0.2838,0.309,0.3234,0.3185,0.3124,0.292,0.2822,0.2832,0.3096,0.3135,0.3172,0.3015,0.2802,0.2801,0.2272,0.2267,0.2264]},{"header":{"parameterUnit":"m.s-1","parameterCategory":2,"la1":30.2991,"la2":30.254,"lo1":-89.0895,"lo2":-89.0444,"dy":0.0017,"dx":0.0017,"nx":28,"ny":28,"refTime":"2026-02-07T09:00:00:Z","depth":"0","parameterNumber":3,"parameterNumberName":"V-component_of_CURRENTS"},"data":[0,0,0,0,0,0,0,0,0,0,0,0,0,0,0,0,0,0,0,0,0,0,0,0,0,0,0,0,0,0,0,0,0,0,0,0,0,0,0,0,0,0,0,0,0,0,0,0,0,0,0,0,0,0,0,0,0,0,0.0456,0.0456,0,0.0433,0.0432,0.0431,0.0398,0.0397,0.0397,0.0397,0.0347,0.0346,0.0345,0,0,0,0,0,0,0,0,0,0,0,0,0,0.0442,0.0442,0.0456,0.0456,0.0457,0.0433,0.0432,0.0431,0.0398,0.0397,0.0397,0.0397,0.0348,0.0346,0.0345,0,0,0,0,0,0,0,0,0,0,0,0,0,0.0432,0.0442,0.0456,0.044,0.0439,0.0433,0.0432,0.0431,0.0398,0.0397,0.0397,0.0397,0.0348,0.0347,0.0345,0.0338,0,0,0.0339,0.0339,0,0,0,0,0,0,0,0,0.0432,0.0432,0.0443,0.0442,0.044,0.0422,0.0409,0.04,0.0398,0.0408,0.0397,0.0397,0.0373,0.0369,0.0359,0.0336,0.0334,0.0339,0.0338,0.0337,0.0337,0,0,0,0,0,0,0,0.0433,0.0433,0.0442,0.0443,0.0441,0.0424,0.0422,0.0407,0.0388,0.0407,0.0406,0.0411,0.0372,0.0361,0.0358,0.0333,0.0339,0.0338,0.0337,0.0336,0.033,0.0331,0,0,0,0,0,0,0.0448,0.0433,0.0443,0.0442,0.0441,0.0425,0.0423,0.0424,0.0389,0.0385,0.0411,0.041,0.0364,0.036,0.0356,0.0393,0.0337,0.0336,0.0335,0.0329,0.033,0.0331,0,0,0,0,0,0,0.0447,0.0448,0.0444,0.0441,0.044,0.0427,0.0428,0.0424,0.0424,0.0393,0.0387,0.0417,0.0364,0.0358,0.0341,0.0389,0.0335,0.0333,0.0328,0.0329,0.0331,0.0438,0,0,0,0,0,0,0.0447,0.0448,0.0452,0.0442,0.0441,0.0462,0.0428,0.0424,0.0429,0.0427,0.0396,0.039,0.0363,0.0344,0.0339,0.0386,0.0332,0.0327,0.0329,0.033,0.0433,0.0443,0.0451,0,0,0,0,0,0.0446,0.0448,0.0453,0.0454,0.0447,0.0463,0.0461,0.0447,0.043,0.0442,0.0405,0.0392,0.0352,0.0343,0.0337,0.0384,0.0326,0.0328,0.033,0.0429,0.0441,0.0451,0,0,0,0,0,0,0.0426,0.0445,0.045,0.0452,0.0472,0.046,0.0461,0.0458,0.0438,0.043,0.0392,0.0384,0.039,0.0364,0.0355,0.0386,0.0342,0.0343,0.042,0.043,0.0439,0.0457,0.033,0,0,0,0,0,0.0432,0.0442,0.0463,0.0464,0.0478,0.0475,0.0477,0.0478,0.0462,0.0453,0.0435,0.041,0.0393,0.0392,0.0371,0.0384,0.0355,0.0413,0.0422,0.043,0.044,0.0422,0.043,0.0338,0.0338,0.0338,0,0,0.0418,0.0433,0.0435,0.0463,0.0468,0.0503,0.0474,0.049,0.052,0.0451,0.0471,0.0437,0.0399,0.0412,0.0415,0.04,0.0442,0.0432,0.044,0.0445,0.0425,0.0434,0.0442,0.0339,0.0339,0.0339,0,0,0.0414,0.0421,0.0442,0.0472,0.0507,0.0517,0.0531,0.0544,0.0553,0.0569,0.0524,0.0519,0.0499,0.0489,0.0477,0.0523,0.0483,0.0519,0.059,0.0573,0.0581,0.0587,0.057,0.0574,0.0532,0.0532,0.0533,0,0.0396,0.0436,0.0449,0.0492,0.0521,0.0532,0.0575,0.0591,0.0598,0.061,0.0592,0.057,0.0543,0.0558,0.0571,0.0549,0.0519,0.0556,0.0586,0.0592,0.0596,0.0577,0.058,0.0538,0.0537,0.0537,0.0536,0,0.0427,0.0466,0.048,0.0546,0.0579,0.0615,0.0658,0.0688,0.0699,0.0711,0.0733,0.0695,0.0683,0.0684,0.0639,0.0668,0.0629,0.0594,0.0564,0.0613,0.0589,0.059,0.0546,0.0544,0.0542,0.0541,0,0,0.0371,0.0481,0.0487,0.054,0.0616,0.0644,0.0709,0.0768,0.0799,0.0823,0.0862,0.0849,0.0827,0.0811,0.077,0.0762,0.0773,0.0696,0.0693,0.0688,0.0727,0.0683,0.0679,0.0733,0.0734,0.0734,0.07,0,0.0395,0.0484,0.0536,0.0624,0.068,0.0729,0.0785,0.0838,0.0868,0.0909,0.091,0.0916,0.0879,0.0865,0.0861,0.0791,0.0779,0.0785,0.0672,0.067,0.0631,0.068,0.0663,0.0629,0.0701,0.0701,0.0701,0,0.0424,0.0484,0.057,0.0684,0.071,0.0757,0.0844,0.09,0.0962,0.0982,0.101,0.0998,0.1014,0.0955,0.0909,0.0908,0.0827,0.0773,0.0769,0.0691,0.0628,0.0589,0.0628,0.0497,0.0703,0.0702,0.0702,0,0.0399,0.0515,0.0582,0.0622,0.074,0.078,0.0838,0.0911,0.0957,0.1021,0.1048,0.1069,0.1073,0.1008,0.0929,0.0905,0.0859,0.0808,0.0697,0.0692,0.0639,0.0628,0.0546,0.0755,0.0755,0.0755,0.0755,0,0.0423,0.048,0.0572,0.0613,0.0686,0.0771,0.0841,0.0901,0.0976,0.1036,0.1073,0.1116,0.1079,0.1058,0.0963,0.0858,0.089,0.0722,0.0686,0.0675,0.0669,0.0518,0.0438,0.0753,0.0754,0.0754,0.0754,0,0.0404,0.0467,0.0544,0.0648,0.0681,0.0728,0.0839,0.0892,0.0964,0.1044,0.1067,0.1147,0.114,0.1091,0.0996,0.0897,0.0712,0.0733,0.073,0.0694,0.0453,0.038,0.0253,0.02,0.0608,0.0607,0.0606,0,0.0408,0.0446,0.054,0.0578,0.0627,0.0706,0.0766,0.0865,0.0929,0.1063,0.1105,0.1146,0.1199,0.1087,0.0933,0.0789,0.0665,0.0634,0.0582,0.0452,0.0343,0.0298,0.0261,0.0556,0.0554,0.0553,0.0552,0,0.0412,0.0431,0.0486,0.0559,0.062,0.0703,0.08,0.085,0.098,0.1068,0.1188,0.1247,0.1168,0.108,0.0894,0.0755,0.0534,0.0603,0.0472,0.0304,0.0246,0.0175,0.0565,0.0542,0.0543,0.0544,0.0545,0.0545,0.0392,0.042,0.0485,0.0555,0.0623,0.0721,0.0802,0.0919,0.1046,0.1237,0.1256,0.1401,0.123,0.1,0.0784,0.0402,0.0422,0.0289,0.0214,0.0185,0.012,0.0488,0.0418,0.0419,0.0419,0.0419,0.0419,0,0.0382,0.0431,0.0492,0.0587,0.0663,0.071,0.0847,0.0956,0.113,0.1317,0.145,0.1472,0.1211,0.0911,0.0409,0.0099,-0.0006,-0.0056,-0.0121,-0.0138,0.0193,0.0176,0.0045,0.0046,0.0046,0.0046,0.0046,0.0046,0.0387,0.0439,0.0482,0.061,0.0683,0.0815,0.0904,0.1073,0.124,0.1502,0.1647,0.1751,0.1508,0.0561,-0.0079,-0.0231,-0.0419,-0.0474,-0.0544,-0.0329,-0.0302,-0.0277,-0.031,-0.0541,-0.0541,-0.0829,-0.0832,-0.0835]}],[{"header":{"parameterUnit":"m.s-1","parameterCategory":2,"la1":30.2991,"la2":30.254,"lo1":-89.0895,"lo2":-89.0444,"dy":0.0017,"dx":0.0017,"nx":28,"ny":28,"refTime":"2026-02-07T09:00:00:Z","depth":"2","parameterNumber":2,"parameterNumberName":"U-component_of_CURRENTS"},"data":[0,0,0,0,0,0,0,0,0,0,0,0,0,0,0,0,0,0,0,0,0,0,0,0,0,0,0,0,0,0,0,0,0,0,0,0,0,0,0,0,0,0,0,0,0,0,0,0,0,0,0,0,0,0,0,0,0,0,-0.0311,-0.031,0,-0.0237,-0.0237,-0.0237,-0.0071,-0.0067,-0.0063,-0.0059,0.0242,0.0246,0.0251,0,0,0,0,0,0,0,0,0,0,0,0,0,-0.0487,-0.0484,-0.0311,-0.031,-0.0308,-0.0237,-0.0237,-0.0237,-0.0072,-0.0067,-0.0062,-0.0058,0.0241,0.0246,0.0251,0,0,0,0,0,0,0,0,0,0,0,0,0,-0.0417,-0.0483,-0.0311,-0.0213,-0.0202,-0.0237,-0.0237,-0.0236,-0.0073,-0.0067,-0.0061,-0.0055,0.0239,0.0245,0.0252,0.0172,0,0,0.0271,0.0274,0,0,0,0,0,0,0,0,-0.0421,-0.0412,-0.0229,-0.0219,-0.0208,-0.0152,-0.0188,-0.0086,-0.0074,-0.0129,-0.0059,-0.0052,0.0131,0.0147,0.0135,0.0186,0.0199,0.0272,0.0276,0.0279,0.0281,0,0,0,0,0,0,0,-0.0426,-0.0415,-0.0288,-0.0227,-0.0215,-0.0232,-0.0215,-0.017,-0.0034,-0.0124,-0.011,-0.0093,0.0139,0.0128,0.0144,0.0203,0.0272,0.0278,0.0282,0.0284,0.0436,0.0436,0,0,0,0,0,0,-0.0419,-0.0419,-0.0291,-0.0285,-0.0295,-0.0233,-0.0214,-0.0181,-0.0039,-0.0012,-0.0099,-0.0086,0.0114,0.0136,0.0156,0.0311,0.0279,0.0285,0.0288,0.0435,0.0436,0.0436,0,0,0,0,0,0,-0.0423,-0.0408,-0.0293,-0.0347,-0.0332,-0.0234,-0.02,-0.0183,-0.013,-0.0021,0.0011,-0.0055,0.012,0.0147,0.0236,0.0316,0.0288,0.0294,0.0435,0.0435,0.0436,0.0469,0,0,0,0,0,0,-0.0428,-0.041,-0.0384,-0.0345,-0.0328,-0.0288,-0.0205,-0.0185,-0.0129,-0.0111,0.0025,0.0055,0.0126,0.0225,0.0242,0.0325,0.0299,0.0435,0.0435,0.0436,0.0467,0.047,0.0472,0,0,0,0,0,-0.0435,-0.0413,-0.0384,-0.0368,-0.0295,-0.0288,-0.0283,-0.0199,-0.0133,-0.0127,-0.0026,0.0055,0.0241,0.0229,0.0249,0.0336,0.0435,0.0435,0.0436,0.0466,0.0469,0.0472,0,0,0,0,0,0,-0.0482,-0.0393,-0.0359,-0.0311,-0.0293,-0.0256,-0.0228,-0.0191,-0.012,-0.0061,0.0035,0.0069,0.0179,0.0222,0.0207,0.0373,0.0359,0.0363,0.0375,0.0379,0.0381,0.0386,0.0304,0,0,0,0,0,-0.0486,-0.0434,-0.0386,-0.0354,-0.0329,-0.0282,-0.0263,-0.0208,-0.0144,-0.0103,-0.0012,0.0093,0.0174,0.0252,0.031,0.0388,0.0388,0.0458,0.0461,0.0463,0.0475,0.0525,0.0534,0.0437,0.0437,0.0437,0,0,-0.0497,-0.0443,-0.0414,-0.036,-0.0323,-0.0292,-0.0253,-0.0203,-0.0168,-0.0083,0.0017,0.0093,0.0185,0.0285,0.0342,0.0355,0.0476,0.0464,0.0466,0.0477,0.0527,0.0536,0.0545,0.0437,0.0437,0.0437,0,0,-0.0492,-0.0441,-0.0387,-0.0367,-0.0299,-0.0281,-0.0259,-0.0197,-0.0149,-0.0093,0.0005,0.0107,0.0218,0.0313,0.0371,0.0405,0.0465,0.046,0.0517,0.0564,0.0574,0.0582,0.0535,0.0539,0.049,0.049,0.049,0,-0.0498,-0.0427,-0.0386,-0.0336,-0.0306,-0.0267,-0.0224,-0.0203,-0.0122,-0.0075,-0.0045,0.0145,0.0223,0.0371,0.0411,0.0419,0.0434,0.0507,0.0571,0.0579,0.0587,0.0538,0.0542,0.0492,0.0491,0.0491,0.0491,0,-0.0448,-0.0396,-0.0368,-0.0281,-0.0265,-0.0226,-0.0185,-0.0143,-0.0085,-0.0047,0.0084,0.0171,0.0307,0.0352,0.0408,0.054,0.0522,0.0546,0.0569,0.0599,0.0543,0.0547,0.0494,0.0493,0.0493,0.0493,0,0,-0.041,-0.0342,-0.0315,-0.028,-0.0222,-0.0197,-0.015,-0.0094,-0.0023,0.0045,0.0138,0.0277,0.0357,0.0425,0.0523,0.0588,0.0636,0.0625,0.0627,0.0586,0.0701,0.0757,0.0765,0.071,0.0712,0.0714,0.0618,0,-0.0363,-0.0263,-0.0255,-0.0188,-0.0133,-0.0116,-0.0083,-0.0027,0.0026,0.0112,0.0209,0.0334,0.0376,0.0494,0.0557,0.0623,0.066,0.0656,0.0672,0.0669,0.0725,0.0778,0.0727,0.0649,0.0621,0.0622,0.0622,0,-0.0283,-0.0223,-0.0119,-0.0107,-0.0081,-0.0039,0.0051,0.0076,0.0169,0.0221,0.0348,0.0417,0.0547,0.057,0.0664,0.0679,0.0703,0.0719,0.0716,0.0771,0.0737,0.0625,0.0656,0.0628,0.0628,0.0628,0.0627,0,-0.0222,-0.0148,-0.0052,-0.003,0.0016,0.0069,0.0082,0.0161,0.0212,0.0335,0.0418,0.0516,0.0638,0.0658,0.0708,0.0712,0.0765,0.0751,0.0791,0.0789,0.0748,0.0742,0.0806,0.0806,0.0806,0.0806,0.0807,0,-0.018,-0.012,0.0013,0.0059,0.0168,0.0166,0.0263,0.0294,0.038,0.0477,0.0528,0.0648,0.0692,0.0732,0.0711,0.0767,0.076,0.0809,0.0803,0.075,0.0746,0.0745,0.074,0.0803,0.0803,0.0804,0.0805,0,-0.017,-0.0067,0.0039,0.0153,0.0209,0.0298,0.0359,0.0409,0.0502,0.0639,0.0699,0.0785,0.0845,0.0817,0.0844,0.0823,0.0815,0.0836,0.073,0.0719,0.0776,0.0773,0.0834,0.0836,0.0837,0.0839,0.084,0,-0.0154,-0.0085,0.0119,0.0245,0.0309,0.0428,0.0486,0.0513,0.0569,0.0733,0.0804,0.0919,0.0919,0.0913,0.0935,0.0854,0.0884,0.0815,0.0836,0.0808,0.0795,0.0789,0.0784,0.0729,0.0729,0.0729,0.0729,0,-0.0177,-0.0073,0.0013,0.0287,0.043,0.0504,0.0591,0.0647,0.0707,0.0802,0.0913,0.0903,0.0963,0.09,0.087,0.0829,0.0811,0.0822,0.0844,0.0772,0.0716,0.0701,0.0697,0.073,0.073,0.073,0.073,0.073,-0.0175,-0.0115,0.0065,0.0306,0.0454,0.0554,0.0592,0.0648,0.0706,0.0808,0.0855,0.0866,0.0835,0.0793,0.0779,0.0876,0.0872,0.0832,0.0828,0.0824,0.0873,0.0829,0.0865,0.0865,0.0866,0.0866,0.0867,0,-0.0171,-0.0107,0.007,0.0307,0.0424,0.0554,0.0637,0.0617,0.0651,0.0795,0.0801,0.0725,0.065,0.0728,0.0856,0.0836,0.0792,0.0848,0.0772,0.0769,0.0768,0.0812,0.0787,0.0788,0.0788,0.0789,0,0,-0.0169,-0.0034,0.0043,0.0263,0.0424,0.0553,0.0615,0.0553,0.0622,0.0632,0.074,0.0657,0.0719,0.0762,0.0729,0.0823,0.0812,0.0822,0.0875,0.0785,0.0785,0.0736,0.0801,0,0,0,0,0]},{"header":{"parameterUnit":"m.s-1","parameterCategory":2,"la1":30.2991,"la2":30.254,"lo1":-89.0895,"lo2":-89.0444,"dy":0.0017,"dx":0.0017,"nx":28,"ny":28,"refTime":"2026-02-07T09:00:00:Z","depth":"2","parameterNumber":3,"parameterNumberName":"V-component_of_CURRENTS"},"data":[0,0,0,0,0,0,0,0,0,0,0,0,0,0,0,0,0,0,0,0,0,0,0,0,0,0,0,0,0,0,0,0,0,0,0,0,0,0,0,0,0,0,0,0,0,0,0,0,0,0,0,0,0,0,0,0,0,0,-0.0166,-0.0167,0,-0.0257,-0.0258,-0.0259,-0.0325,-0.0325,-0.0326,-0.0327,-0.0469,-0.0472,-0.0475,0,0,0,0,0,0,0,0,0,0,0,0,0,0.0031,0.0027,-0.0166,-0.0167,-0.0169,-0.0257,-0.0258,-0.0259,-0.0324,-0.0325,-0.0327,-0.0327,-0.0468,-0.0472,-0.0475,0,0,0,0,0,0,0,0,0,0,0,0,0,-0.0054,0.0026,-0.0165,-0.0214,-0.022,-0.0257,-0.0258,-0.0259,-0.0324,-0.0325,-0.0327,-0.0328,-0.0467,-0.0471,-0.0476,-0.0477,0,0,-0.0489,-0.0491,0,0,0,0,0,0,0,0,-0.0049,-0.006,-0.0206,-0.0211,-0.0218,-0.0284,-0.0241,-0.0336,-0.0324,-0.0281,-0.0327,-0.0329,-0.0413,-0.0422,-0.0431,-0.0484,-0.049,-0.049,-0.0492,-0.0494,-0.0496,0,0,0,0,0,0,0,-0.0043,-0.0057,-0.0198,-0.0207,-0.0214,-0.0205,-0.0219,-0.0258,-0.0337,-0.0285,-0.0291,-0.0306,-0.0416,-0.0426,-0.0435,-0.0492,-0.049,-0.0494,-0.0496,-0.0498,-0.0639,-0.064,0,0,0,0,0,0,-0.0042,-0.0052,-0.0196,-0.0201,-0.0138,-0.0208,-0.0223,-0.0258,-0.0336,-0.0349,-0.0305,-0.0309,-0.0418,-0.043,-0.044,-0.0479,-0.0494,-0.0499,-0.0501,-0.0638,-0.0639,-0.064,0,0,0,0,0,0,-0.0038,-0.0055,-0.0192,-0.013,-0.0147,-0.0211,-0.0249,-0.026,-0.029,-0.0351,-0.0365,-0.0327,-0.0419,-0.0434,-0.049,-0.0484,-0.0501,-0.0505,-0.0637,-0.0638,-0.064,-0.0536,0,0,0,0,0,0,-0.0032,-0.0053,-0.0059,-0.0131,-0.0151,-0.0223,-0.0249,-0.0261,-0.0298,-0.0304,-0.0374,-0.0388,-0.0422,-0.0483,-0.0494,-0.049,-0.0508,-0.0635,-0.0637,-0.0639,-0.0538,-0.0534,-0.053,0,0,0,0,0,-0.0025,-0.0018,-0.0059,-0.0076,-0.0164,-0.0223,-0.0232,-0.0278,-0.0297,-0.0309,-0.0358,-0.0386,-0.0504,-0.0487,-0.05,-0.0497,-0.0634,-0.0637,-0.0639,-0.054,-0.0535,-0.053,0,0,0,0,0,0,0.0076,-0.0027,-0.0073,-0.0097,-0.0167,-0.0236,-0.0229,-0.0282,-0.0328,-0.033,-0.0393,-0.0409,-0.0453,-0.0501,-0.0481,-0.055,-0.0577,-0.0582,-0.0497,-0.0493,-0.0489,-0.0468,-0.0512,0,0,0,0,0,0.0089,0.0065,-0.0044,-0.0057,-0.0089,-0.0166,-0.0189,-0.0239,-0.0295,-0.0317,-0.0373,-0.043,-0.0469,-0.0502,-0.0546,-0.0582,-0.0613,-0.0597,-0.0592,-0.0588,-0.0585,-0.0629,-0.0627,-0.0648,-0.0648,-0.0648,0,0,0.0124,0.0071,0.0055,-0.0037,-0.008,-0.0126,-0.0181,-0.0221,-0.0267,-0.0324,-0.0378,-0.0414,-0.0477,-0.0511,-0.0537,-0.0553,-0.0597,-0.0591,-0.0587,-0.0586,-0.0631,-0.0628,-0.0626,-0.065,-0.065,-0.0649,0,0,0.0198,0.0132,0.0133,0.0074,-0.0007,-0.0075,-0.0097,-0.0192,-0.024,-0.0309,-0.0346,-0.0376,-0.047,-0.0489,-0.0516,-0.0523,-0.0569,-0.0554,-0.0519,-0.056,-0.0558,-0.0556,-0.0569,-0.057,-0.0558,-0.0558,-0.0558,0,0.0241,0.0212,0.0129,0.0111,0.0074,-0.0058,-0.0078,-0.0152,-0.0258,-0.0288,-0.0323,-0.0411,-0.0453,-0.0473,-0.0474,-0.0508,-0.0541,-0.0519,-0.055,-0.0549,-0.0549,-0.0564,-0.0566,-0.0553,-0.0554,-0.0554,-0.0554,0,0.0286,0.0269,0.0274,0.0187,0.0139,0.0101,-0.0028,-0.0089,-0.0171,-0.0249,-0.0304,-0.0355,-0.0401,-0.0422,-0.0451,-0.0467,-0.0491,-0.0528,-0.0547,-0.054,-0.0557,-0.056,-0.0546,-0.0548,-0.0549,-0.055,0,0,0.0335,0.0308,0.0299,0.0293,0.0169,0.013,0.0057,-0.005,-0.0079,-0.02,-0.0223,-0.0292,-0.0321,-0.0352,-0.0382,-0.0423,-0.0431,-0.0475,-0.0479,-0.046,-0.0512,-0.0413,-0.0408,-0.048,-0.0481,-0.0481,-0.0514,0,0.038,0.0387,0.0349,0.0336,0.0318,0.0207,0.0162,0.0054,-0.0045,-0.0106,-0.0197,-0.0221,-0.0301,-0.0278,-0.0345,-0.0406,-0.0442,-0.0418,-0.0547,-0.055,-0.0441,-0.0409,-0.0439,-0.0462,-0.0518,-0.0518,-0.0519,0,0.0406,0.0408,0.0414,0.0418,0.0402,0.038,0.0295,0.0241,0.0115,0.0059,-0.0015,-0.0096,-0.0156,-0.0216,-0.0352,-0.034,-0.0417,-0.0479,-0.0483,-0.0429,-0.0458,-0.0488,-0.0467,-0.0525,-0.0525,-0.0524,-0.0524,0,0.0447,0.0456,0.0468,0.0449,0.041,0.0421,0.0403,0.03,0.0275,0.0189,0.018,0.0042,0.003,-0.013,-0.0275,-0.0316,-0.0421,-0.0491,-0.0477,-0.0471,-0.054,-0.0537,-0.0578,-0.0578,-0.0578,-0.0578,-0.0578,0,0.0481,0.0507,0.0503,0.0498,0.0543,0.0506,0.0536,0.0496,0.0454,0.045,0.0298,0.0295,0.0048,-0.0061,-0.0233,-0.0344,-0.039,-0.0451,-0.0468,-0.0501,-0.0495,-0.0597,-0.0599,-0.0579,-0.0579,-0.0579,-0.0578,0,0.0541,0.0521,0.055,0.0547,0.0566,0.0599,0.0652,0.067,0.0636,0.0639,0.0633,0.0487,0.0352,0.0117,-0.0096,-0.0222,-0.0368,-0.0391,-0.0388,-0.0402,-0.0411,-0.0408,-0.0399,-0.0396,-0.0393,-0.0391,-0.0389,0,0.0574,0.059,0.0596,0.0616,0.0636,0.0695,0.0742,0.0753,0.078,0.0762,0.0778,0.0672,0.0554,0.0293,0.0047,-0.0205,-0.0267,-0.0308,-0.0382,-0.0372,-0.0391,-0.0392,-0.0393,-0.0447,-0.0445,-0.0444,-0.0444,0,0.0651,0.0644,0.0658,0.0696,0.0751,0.083,0.0917,0.0959,0.0967,0.0982,0.1001,0.092,0.0657,0.0368,0.0077,-0.0081,-0.0281,-0.0285,-0.0303,-0.0451,-0.041,-0.043,-0.0432,-0.0434,-0.0435,-0.0435,-0.0436,-0.0436,0.0701,0.0734,0.0736,0.0795,0.0852,0.0958,0.1042,0.1108,0.1179,0.1126,0.1057,0.0902,0.0589,0.016,-0.0025,-0.0151,-0.0179,-0.0288,-0.0296,-0.0305,-0.0267,-0.022,-0.0201,-0.0201,-0.02,-0.02,-0.02,0,0.0742,0.0794,0.0847,0.0907,0.099,0.1009,0.1141,0.1171,0.1256,0.1167,0.106,0.0677,0.036,0.013,-0.0065,-0.0209,-0.0271,-0.023,-0.0338,-0.0346,-0.0354,-0.0324,-0.0271,-0.0271,-0.0271,-0.0271,0,0,0.0759,0.0816,0.0862,0.1008,0.1066,0.1183,0.1254,0.1282,0.1259,0.1102,0.0971,0.0568,0.0368,0.0146,-0.0079,-0.0125,-0.0174,-0.0124,-0.0059,-0.0168,-0.0172,-0.0388,-0.0348,0,0,0,0,0]}],[{"header":{"parameterUnit":"m.s-1","parameterCategory":2,"la1":30.2991,"la2":30.254,"lo1":-89.0895,"lo2":-89.0444,"dy":0.0017,"dx":0.0017,"nx":28,"ny":28,"refTime":"2026-02-07T09:00:00:Z","depth":"4","parameterNumber":2,"parameterNumberName":"U-component_of_CURRENTS"},"data":[0,0,0,0,0,0,0,0,0,0,0,0,0,0,0,0,0,0,0,0,0,0,0,0,0,0,0,0,0,0,0,0,0,0,0,0,0,0,0,0,0,0,0,0,0,0,0,0,0,0,0,0,0,0,0,0,0,0,-0.0259,-0.0259,0,-0.0228,-0.0228,-0.0227,-0.0218,-0.0219,-0.0219,-0.0219,-0.0295,-0.0297,-0.0299,0,0,0,0,0,0,0,0,0,0,0,0,0,-0.0267,-0.0267,-0.0259,-0.0259,-0.0258,-0.0228,-0.0228,-0.0227,-0.0218,-0.0219,-0.0219,-0.0219,-0.0295,-0.0297,-0.0299,0,0,0,0,0,0,0,0,0,0,0,0,0,-0.0252,-0.0267,-0.0259,-0.0251,-0.025,-0.0228,-0.0228,-0.0227,-0.0218,-0.0219,-0.0219,-0.0219,-0.0294,-0.0297,-0.0299,-0.0307,0,0,-0.0307,-0.0308,0,0,0,0,0,0,0,0,-0.0253,-0.0251,-0.0253,-0.0252,-0.0251,-0.0229,-0.0258,-0.0259,-0.0218,-0.0229,-0.0219,-0.022,-0.0283,-0.0287,-0.0277,-0.0311,-0.0314,-0.0307,-0.0309,-0.031,-0.0311,0,0,0,0,0,0,0,-0.0254,-0.0252,-0.0245,-0.0252,-0.0251,-0.0235,-0.0233,-0.0258,-0.0255,-0.0228,-0.0228,-0.0226,-0.0284,-0.0274,-0.0279,-0.0315,-0.0307,-0.031,-0.0311,-0.0312,-0.0394,-0.0394,0,0,0,0,0,0,-0.0262,-0.0254,-0.0246,-0.0245,-0.0254,-0.0235,-0.0233,-0.0234,-0.0253,-0.0255,-0.0226,-0.0226,-0.0269,-0.0276,-0.0282,-0.0339,-0.031,-0.0313,-0.0314,-0.0393,-0.0394,-0.0395,0,0,0,0,0,0,-0.0262,-0.0262,-0.0248,-0.0249,-0.0246,-0.0234,-0.0236,-0.0233,-0.0235,-0.025,-0.0255,-0.0231,-0.027,-0.0278,-0.0305,-0.034,-0.0314,-0.0316,-0.0393,-0.0393,-0.0394,-0.0424,0,0,0,0,0,0,-0.0263,-0.0262,-0.0266,-0.025,-0.0247,-0.0243,-0.0235,-0.0233,-0.0233,-0.0233,-0.0256,-0.0262,-0.0271,-0.0301,-0.0307,-0.0344,-0.0318,-0.0392,-0.0393,-0.0394,-0.0422,-0.0426,-0.0429,0,0,0,0,0,-0.0263,-0.0267,-0.0266,-0.0265,-0.0252,-0.0243,-0.024,-0.0232,-0.0233,-0.0234,-0.0245,-0.0262,-0.0313,-0.0303,-0.0311,-0.0349,-0.0391,-0.0393,-0.0394,-0.0421,-0.0425,-0.0429,0,0,0,0,0,0,-0.0272,-0.0266,-0.0265,-0.0267,-0.026,-0.0243,-0.024,-0.0238,-0.0244,-0.0249,-0.0265,-0.0272,-0.0313,-0.0319,-0.0308,-0.0373,-0.0358,-0.0361,-0.0376,-0.038,-0.0383,-0.0381,-0.032,0,0,0,0,0,-0.0276,-0.0278,-0.0269,-0.0271,-0.0268,-0.0256,-0.0252,-0.0249,-0.0251,-0.0253,-0.0269,-0.0291,-0.0321,-0.034,-0.0361,-0.0394,-0.0386,-0.0423,-0.0427,-0.0429,-0.0432,-0.0452,-0.0457,-0.0399,-0.0399,-0.0399,0,0,-0.028,-0.0277,-0.0278,-0.0273,-0.0265,-0.0262,-0.0255,-0.0252,-0.0257,-0.0264,-0.0281,-0.0305,-0.0331,-0.0367,-0.0387,-0.038,-0.0436,-0.0431,-0.0433,-0.0434,-0.0454,-0.046,-0.0465,-0.04,-0.04,-0.0399,0,0,-0.0283,-0.0285,-0.0285,-0.0283,-0.0276,-0.027,-0.0274,-0.0266,-0.027,-0.0286,-0.0301,-0.0329,-0.0371,-0.0389,-0.0407,-0.0438,-0.0452,-0.0467,-0.0487,-0.0507,-0.0512,-0.0516,-0.0486,-0.0488,-0.047,-0.047,-0.047,0,-0.0291,-0.0284,-0.0284,-0.0283,-0.0279,-0.0277,-0.0274,-0.0279,-0.0284,-0.0296,-0.0297,-0.035,-0.0375,-0.0418,-0.0442,-0.0446,-0.0454,-0.0472,-0.0511,-0.0516,-0.052,-0.0488,-0.049,-0.0471,-0.0471,-0.0471,-0.0471,0,-0.0288,-0.0287,-0.0286,-0.0285,-0.0285,-0.028,-0.0287,-0.0299,-0.0308,-0.0316,-0.0355,-0.0372,-0.0411,-0.0429,-0.0456,-0.051,-0.0502,-0.0513,-0.0502,-0.0528,-0.0492,-0.0493,-0.0473,-0.0473,-0.0472,-0.0472,0,0,-0.0294,-0.0284,-0.0285,-0.0277,-0.0282,-0.0277,-0.03,-0.0312,-0.0332,-0.0346,-0.0365,-0.0421,-0.0444,-0.0466,-0.0496,-0.0517,-0.0551,-0.0548,-0.0548,-0.0518,-0.0578,-0.0487,-0.0478,-0.0593,-0.0594,-0.0595,-0.0532,0,-0.0288,-0.0277,-0.0279,-0.0272,-0.0264,-0.0278,-0.0297,-0.0319,-0.0343,-0.0367,-0.0388,-0.043,-0.0456,-0.0494,-0.052,-0.0552,-0.0561,-0.0565,-0.0558,-0.0556,-0.0473,-0.048,-0.0598,-0.0532,-0.0533,-0.0533,-0.0533,0,-0.028,-0.0273,-0.0264,-0.0258,-0.0257,-0.0264,-0.0291,-0.0312,-0.0359,-0.0389,-0.0431,-0.0459,-0.0504,-0.0518,-0.0557,-0.0572,-0.059,-0.059,-0.0588,-0.0495,-0.0468,-0.0508,-0.0534,-0.0534,-0.0534,-0.0534,-0.0534,0,-0.0265,-0.0257,-0.0246,-0.0245,-0.0252,-0.0261,-0.0272,-0.0321,-0.0343,-0.0417,-0.0444,-0.049,-0.0513,-0.0548,-0.0564,-0.059,-0.0571,-0.0595,-0.0504,-0.0496,-0.0584,-0.058,-0.0615,-0.0615,-0.0615,-0.0615,-0.0615,0,-0.0246,-0.0236,-0.024,-0.0234,-0.0233,-0.0252,-0.0271,-0.0309,-0.0357,-0.0374,-0.0464,-0.0465,-0.0536,-0.0532,-0.0555,-0.0511,-0.0562,-0.0499,-0.0481,-0.0593,-0.0591,-0.0582,-0.058,-0.0613,-0.0613,-0.0614,-0.0614,0,-0.0227,-0.0227,-0.0219,-0.0226,-0.0225,-0.0234,-0.0253,-0.0269,-0.0344,-0.0367,-0.0396,-0.0454,-0.0455,-0.0472,-0.0492,-0.0477,-0.0456,-0.0429,-0.0501,-0.0491,-0.0367,-0.0366,-0.0325,-0.0322,-0.0319,-0.0316,-0.0314,0,-0.0212,-0.0206,-0.021,-0.0204,-0.0204,-0.0214,-0.0215,-0.0266,-0.028,-0.033,-0.0324,-0.0349,-0.0376,-0.031,-0.0348,-0.0337,-0.0345,-0.0328,-0.0396,-0.0353,-0.0341,-0.0345,-0.0349,-0.0309,-0.0309,-0.0308,-0.0307,0,-0.0192,-0.0201,-0.0197,-0.0187,-0.0181,-0.0162,-0.0162,-0.0164,-0.0212,-0.0274,-0.0257,-0.026,-0.0233,-0.024,-0.0232,-0.0231,-0.0342,-0.0297,-0.0305,-0.0368,-0.0333,-0.0325,-0.0332,-0.0296,-0.0298,-0.0299,-0.03,0,-0.0187,-0.0184,-0.0184,-0.0171,-0.0147,-0.0102,-0.0108,-0.0097,-0.0114,-0.0175,-0.014,-0.0169,-0.0197,-0.0177,-0.0159,-0.0157,-0.0173,-0.0188,-0.0202,-0.0214,-0.0211,-0.0152,-0.0037,0,0,0,0,0,-0.018,-0.017,-0.0158,-0.0128,-0.0093,-0.0074,-0.0063,-0.0076,-0.0107,-0.0081,-0.0119,-0.0096,-0.0085,-0.009,-0.0069,-0.0103,-0.0169,-0.0076,-0.0193,-0.0238,-0.025,-0.0259,0,0,0,0,0,0,-0.0175,-0.0168,-0.0159,-0.0089,-0.0048,0.0,0.0016,-0.0002,0.0005,-0.0037,-0.0033,-0.0073,-0.0067,-0.0096,-0.0063,-0.0065,-0.013,-0.0093,-0.0091,-0.0231,-0.0242,-0.0252,-0.0265,0,0,0,0,0]},{"header":{"parameterUnit":"m.s-1","parameterCategory":2,"la1":30.2991,"la2":30.254,"lo1":-89.0895,"lo2":-89.0444,"dy":0.0017,"dx":0.0017,"nx":28,"ny":28,"refTime":"2026-02-07T09:00:00:Z","depth":"4","parameterNumber":3,"parameterNumberName":"V-component_of_CURRENTS"},"data":[0,0,0,0,0,0,0,0,0,0,0,0,0,0,0,0,0,0,0,0,0,0,0,0,0,0,0,0,0,0,0,0,0,0,0,0,0,0,0,0,0,0,0,0,0,0,0,0,0,0,0,0,0,0,0,0,0,0,-0.0071,-0.0071,0,-0.0074,-0.0074,-0.0074,-0.0076,-0.0076,-0.0076,-0.0076,-0.0105,-0.0106,-0.0107,0,0,0,0,0,0,0,0,0,0,0,0,0,-0.0052,-0.0052,-0.007,-0.0071,-0.0071,-0.0074,-0.0074,-0.0074,-0.0076,-0.0076,-0.0076,-0.0076,-0.0105,-0.0106,-0.0107,0,0,0,0,0,0,0,0,0,0,0,0,0,-0.0058,-0.0052,-0.007,-0.0072,-0.0072,-0.0074,-0.0074,-0.0074,-0.0076,-0.0076,-0.0076,-0.0076,-0.0105,-0.0106,-0.0107,-0.0113,0,0,-0.0111,-0.0111,0,0,0,0,0,0,0,0,-0.0057,-0.0058,-0.0072,-0.0072,-0.0072,-0.0075,-0.0078,-0.0088,-0.0076,-0.0074,-0.0076,-0.0076,-0.0098,-0.01,-0.0099,-0.0114,-0.0116,-0.0111,-0.0111,-0.0112,-0.0112,0,0,0,0,0,0,0,-0.0057,-0.0058,-0.0071,-0.0072,-0.0072,-0.0068,-0.0069,-0.008,-0.0086,-0.0074,-0.0075,-0.0075,-0.0098,-0.0098,-0.01,-0.0116,-0.0111,-0.0112,-0.0112,-0.0113,-0.0168,-0.0168,0,0,0,0,0,0,-0.0058,-0.0058,-0.0071,-0.0072,-0.0065,-0.0069,-0.007,-0.0074,-0.0085,-0.0087,-0.0075,-0.0076,-0.0096,-0.0099,-0.0101,-0.0144,-0.0112,-0.0113,-0.0114,-0.0167,-0.0168,-0.0169,0,0,0,0,0,0,-0.0058,-0.0059,-0.0071,-0.0065,-0.0066,-0.0069,-0.0073,-0.0074,-0.008,-0.0086,-0.0088,-0.0082,-0.0096,-0.0099,-0.0119,-0.0144,-0.0113,-0.0114,-0.0166,-0.0167,-0.0168,-0.0207,0,0,0,0,0,0,-0.0057,-0.0059,-0.0063,-0.0065,-0.0067,-0.0082,-0.0073,-0.0074,-0.008,-0.008,-0.0092,-0.0094,-0.0097,-0.0117,-0.012,-0.0145,-0.0115,-0.0165,-0.0167,-0.0168,-0.0205,-0.0209,-0.0213,0,0,0,0,0,-0.0057,-0.0064,-0.0063,-0.0065,-0.0072,-0.0083,-0.0084,-0.0085,-0.008,-0.0089,-0.0095,-0.0094,-0.0129,-0.0119,-0.0122,-0.0147,-0.0164,-0.0166,-0.0168,-0.0203,-0.0208,-0.0213,0,0,0,0,0,0,-0.0061,-0.0065,-0.0064,-0.0073,-0.0081,-0.0084,-0.0088,-0.0089,-0.0099,-0.0099,-0.0102,-0.0106,-0.0136,-0.0132,-0.0121,-0.0167,-0.0147,-0.015,-0.0173,-0.0178,-0.0182,-0.0183,-0.0116,0,0,0,0,0,-0.0063,-0.0067,-0.0074,-0.0081,-0.0085,-0.0087,-0.0091,-0.0094,-0.0101,-0.0105,-0.0117,-0.0127,-0.0144,-0.0153,-0.0168,-0.0188,-0.0179,-0.0207,-0.0211,-0.0215,-0.0217,-0.0218,-0.0223,-0.0175,-0.0174,-0.0174,0,0,-0.0065,-0.0069,-0.0071,-0.0082,-0.0085,-0.0107,-0.009,-0.01,-0.0124,-0.0108,-0.0143,-0.0146,-0.0154,-0.0183,-0.0195,-0.0182,-0.0225,-0.0217,-0.022,-0.0221,-0.0221,-0.0225,-0.0229,-0.0176,-0.0175,-0.0175,0,0,-0.0079,-0.0078,-0.0089,-0.0101,-0.0111,-0.0118,-0.0124,-0.0135,-0.0144,-0.017,-0.0171,-0.0186,-0.0209,-0.0222,-0.023,-0.0265,-0.0251,-0.027,-0.029,-0.0291,-0.0295,-0.0298,-0.0298,-0.0301,-0.0268,-0.0268,-0.0268,0,-0.0085,-0.0101,-0.0095,-0.0116,-0.0133,-0.0128,-0.0156,-0.0167,-0.0186,-0.0198,-0.0188,-0.0222,-0.023,-0.0264,-0.0276,-0.0277,-0.0268,-0.027,-0.0297,-0.03,-0.0302,-0.0301,-0.0303,-0.027,-0.027,-0.0269,-0.0269,0,-0.011,-0.0129,-0.0138,-0.0166,-0.0184,-0.0204,-0.0222,-0.024,-0.0246,-0.0255,-0.0284,-0.0285,-0.0303,-0.031,-0.0304,-0.0332,-0.0317,-0.0305,-0.0283,-0.031,-0.0306,-0.0308,-0.0273,-0.0272,-0.0271,-0.0271,0,0,-0.0116,-0.015,-0.0155,-0.0177,-0.0213,-0.0229,-0.027,-0.0302,-0.0327,-0.0334,-0.0363,-0.0382,-0.0369,-0.0376,-0.0368,-0.0364,-0.0379,-0.034,-0.0339,-0.0338,-0.0377,-0.0359,-0.036,-0.0365,-0.0366,-0.0366,-0.0368,0,-0.0142,-0.0183,-0.0201,-0.0253,-0.0279,-0.0298,-0.0337,-0.0365,-0.0383,-0.0411,-0.0401,-0.0429,-0.0398,-0.0406,-0.0397,-0.0386,-0.0385,-0.0379,-0.0352,-0.0351,-0.0332,-0.0362,-0.0368,-0.0369,-0.037,-0.037,-0.037,0,-0.0173,-0.0193,-0.0245,-0.0294,-0.0307,-0.0346,-0.04,-0.0432,-0.0467,-0.0482,-0.0492,-0.0485,-0.049,-0.0457,-0.0437,-0.0431,-0.0411,-0.0392,-0.0391,-0.0362,-0.0338,-0.0336,-0.0374,-0.0373,-0.0373,-0.0373,-0.0373,0,-0.0183,-0.0231,-0.0271,-0.029,-0.0344,-0.0376,-0.0407,-0.0454,-0.0479,-0.0529,-0.0546,-0.0546,-0.0544,-0.0514,-0.0466,-0.0456,-0.0433,-0.0419,-0.0386,-0.0385,-0.0381,-0.0377,-0.0414,-0.0414,-0.0414,-0.0414,-0.0414,0,-0.0216,-0.0249,-0.0277,-0.0303,-0.0349,-0.0386,-0.0442,-0.048,-0.0522,-0.0542,-0.0575,-0.0574,-0.0555,-0.053,-0.0487,-0.0438,-0.0451,-0.0398,-0.0387,-0.0398,-0.0396,-0.0382,-0.0379,-0.0414,-0.0414,-0.0414,-0.0414,0,-0.024,-0.0259,-0.0298,-0.0342,-0.0361,-0.0393,-0.0453,-0.0484,-0.0536,-0.0563,-0.0577,-0.0597,-0.0569,-0.0543,-0.0501,-0.0467,-0.0426,-0.0408,-0.0425,-0.0414,-0.0373,-0.0372,-0.0383,-0.0382,-0.0382,-0.0381,-0.0381,0,-0.026,-0.0282,-0.0316,-0.0331,-0.0358,-0.0404,-0.0435,-0.049,-0.0508,-0.055,-0.0547,-0.0558,-0.0555,-0.0489,-0.0468,-0.0422,-0.0405,-0.0403,-0.0387,-0.0383,-0.0372,-0.0371,-0.037,-0.038,-0.038,-0.038,-0.038,0,-0.0286,-0.0293,-0.0312,-0.0335,-0.0368,-0.0405,-0.0442,-0.0454,-0.0495,-0.0531,-0.0513,-0.0508,-0.0487,-0.0455,-0.044,-0.0394,-0.0416,-0.0398,-0.0398,-0.0384,-0.038,-0.0369,-0.0369,-0.0378,-0.0379,-0.0379,-0.0379,0,-0.0293,-0.0299,-0.031,-0.0331,-0.0364,-0.0394,-0.0422,-0.0429,-0.0452,-0.0479,-0.0454,-0.0462,-0.0462,-0.0439,-0.0402,-0.0386,-0.0374,-0.0363,-0.0365,-0.0366,-0.036,-0.0353,-0.0341,0,0,0,0,0,-0.0295,-0.0294,-0.0308,-0.0328,-0.0356,-0.0377,-0.0416,-0.0435,-0.0454,-0.0428,-0.0443,-0.0414,-0.0396,-0.0394,-0.0369,-0.04,-0.0382,-0.0373,-0.0373,-0.037,-0.0372,-0.0365,0,0,0,0,0,0,-0.0295,-0.0303,-0.0297,-0.0313,-0.0325,-0.0364,-0.0389,-0.0408,-0.0389,-0.04,-0.0383,-0.0391,-0.0369,-0.0393,-0.0357,-0.0358,-0.0353,-0.0369,-0.0368,-0.0369,-0.0371,-0.0372,-0.0366,0,0,0,0,0]}]]